This is the latest recevied weather packets stored in our database for station/object K4DNM. If no packets are shown the sender has not sent any weather packets the latest 10 day(s).
| Time | Temp. | Humidity | Pressure | Rain* | Wind** | Luminosity | Snow |
|---|---|---|---|---|---|---|---|
| 1778073160 | 20.56° C | 72% | 1014.1 hPa | 0 mm | - | 219 W/m² | - |
| 1778072862 | 20° C | 74% | 1013.9 hPa | 0 mm | - | 193 W/m² | - |
| 1778072565 | 19.44° C | 75% | 1013.9 hPa | 0 mm | - | 232 W/m² | - |
| 1778072265 | 19.44° C | 76% | 1013.8 hPa | 0 mm | - | 222 W/m² | - |
| 1778071961 | 18.89° C | 78% | 1013.8 hPa | 0 mm | - | 210 W/m² | - |
| 1778071721 | 18.89° C | 79% | 1013.7 hPa | 0 mm | - | 122 W/m² | - |
| 1778071359 | 18.33° C | 80% | 1013.8 hPa | 0 mm | - | 145 W/m² | - |
| 1778071119 | 18.33° C | 81% | 1013.8 hPa | 0 mm | - | 150 W/m² | - |
| 1778070758 | 17.78° C | 83% | 1013.8 hPa | 0 mm | - | 114 W/m² | - |
| 1778070459 | 17.78° C | 84% | 1013.8 hPa | 0 mm | - | 115 W/m² | - |
| 1778070148 | 17.78° C | 84% | 1013.8 hPa | 0 mm | - | 104 W/m² | - |
| 1778069848 | 17.78° C | 84% | 1013.7 hPa | 0 mm | - | 101 W/m² | - |
| 1778069548 | 17.78° C | 84% | 1013.7 hPa | 0 mm | - | 101 W/m² | - |
| 1778069308 | 17.78° C | 84% | 1013.5 hPa | 0 mm | - | 148 W/m² | - |
| 1778069006 | 17.22° C | 83% | 1013.5 hPa | 0 mm | - | 85 W/m² | - |
| 1778068694 | 16.67° C | 86% | 1013.6 hPa | 0 mm | - | 218 W/m² | - |
| 1778068393 | 16.67° C | 87% | 1013.7 hPa | 0 mm | - | 214 W/m² | - |
| 1778068033 | 16.11° C | 88% | 1013.8 hPa | 0 mm | - | 90 W/m² | - |
| 1778067718 | 16.11° C | 89% | 1013.8 hPa | 0 mm | - | 62 W/m² | - |
| 1778067402 | 16.11° C | 89% | 1013.9 hPa | 0 mm | - | 44 W/m² | - |
| 1778067162 | 16.11° C | 89% | 1013.9 hPa | 0 mm | - | 44 W/m² | - |
| 1778066815 | 16.11° C | 89% | 1013.8 hPa | 0 mm | - | 34 W/m² | - |
| 1778066503 | 15.56° C | 90% | 1013.8 hPa | 0 mm | - | 47 W/m² | - |
| 1778066202 | 15.56° C | 90% | 1013.6 hPa | 0 mm | - | 18 W/m² | - |
| 1778065902 | 15.56° C | 90% | 1013.7 hPa | 0 mm | - | 14 W/m² | - |
* Rain latest hour (hover to see other rain measurements)
** Current wind speed in m/s (hover to see current wind gust speed)